Home > Weather > Taunusstein > Past weeks

Flag for Germany Past Weather in Taunusstein, Hesse, Germany — Yesterday and Last 2 Weeks

Now
70 °F

Drizzle. Broken clouds.


Feels Like: 70 °F
Forecast: 63 / 75 °F
Wind: 8 mph from Northeast

Location: Wiesbaden Airport

Current Time: Jul 24, 2016 at 10:27:06 PM

Latest Report: Jul 24, 2016 at 9:50 PM


Visibility: N/A

Pressure: 30.08 "Hg

Humidity: 73%

Dew Point: 61 °F

Location of TaunussteinLocation

Past Weather in Taunusstein — Graph

°F

Taunusstein Temperature Yesterday

Maximum temperature yesterday: 77 °F (at 2:58 PM)
Minimum temperature yesterday: 66 °F (at 5:58 AM)
Average temperature yesterday: 70 °F

High & Low Weather Summary for the Past Weeks

 TemperatureHumidityPressure
High93 °F (Jul 20, 5:58 PM)88% (Jul 21, 5:58 AM)30.31 "Hg (Jul 21, 5:58 AM)
Low52 °F (Jul 16, 4:58 AM)24% (Jul 19, 4:58 PM)29.80 "Hg (Jul 10, 8:58 PM)
Average70 °F58%30.05 "Hg
* Reported Jul 9 8:58 PM — Jul 24 8:58 PM, Taunusstein, Weather by CustomWeather, © 2016

Note: Actual official high and low records may vary slightly from our data, if they occured in-between our weather recording intervals... More about our weather records

Advertising

Taunusstein Weather History for the Previous 24 Hours

Scroll right to see more
 ConditionsComfort  
Time TempWeatherWind HumidityBarometerVisibility
8:58 PM
Sun, Jul 24
74 °FMostly cloudy.8 mph64%30.06 "HgN/A
7:58 PM77 °FOvercast.9 mph57%30.05 "HgN/A
6:58 PM79 °FOvercast.2 mph51%30.04 "HgN/A
5:58 PM77 °FOvercast.2 mph57%30.04 "HgN/A
4:58 PM75 °FOvercast.2 mph65%30.06 "HgN/A
3:58 PM72 °FBroken clouds.6 mph78%30.07 "HgN/A
2:58 PM76 °FLight rain. Mostly cloudy.7 mph60%30.07 "HgN/A
1:58 PM77 °FOvercast.5 mph54%30.08 "HgN/A
12:58 PM77 °FPartly sunny.3 mph57%30.08 "HgN/A
11:58 AM75 °FPartly sunny.3 mph57%30.08 "HgN/A
10:58 AM73 °FPartly sunny.2 mph64%30.08 "HgN/A
9:58 AM71 °FPartly sunny.5 mph69%30.08 "HgN/A
8:58 AM69 °FScattered clouds.3 mph78%30.08 "HgN/A
7:58 AM66 °FOvercast.1 mph88%30.08 "HgN/A
6:58 AM66 °FScattered clouds.6 mph85%30.07 "HgN/A
5:58 AM66 °FLight rain. Partly cloudy.2 mph83%30.07 "Hg4 mi
5:00 AM66 °FRain. Overcast.6 mph83%30.08 "Hg4 mi
4:58 AM66 °FRain. Overcast.6 mph83%30.07 "Hg3 mi
2:58 AM66 °FPartly cloudy.2 mph88%30.07 "HgN/A
1:58 AM67 °FPartly cloudy.6 mph83%30.07 "HgN/A
12:58 AM68 °FPassing clouds.1 mph88%30.07 "Hg6 mi
11:58 PM
Sat, Jul 23
68 °FLight rain. Clear.2 mph88%30.07 "Hg6 mi
10:58 PM69 °FLight rain. Passing clouds.3 mph84%30.07 "HgN/A
Weather by CustomWeather, © 2016

See weather overviewHow to use our weather pages